FENGYUN 1C DEB, 30632

Orbit data source: Space-Track

FENGYUN 1C DEB, 30632 is space debris in SSO originally from a launch on Mon, 10 May 1999 UTC launched from the Taiyaun Space Center, China (TSC). Fengyun 1C debris stems from the Chinese weather satellite Fengyun-1C, which was intentionally destroyed by a Chinese anti-satellite missile in 2007. This event dramatically increased the amount of space debris, with thousands of trackable fragments posing hazards to satellites and human spaceflight. The Fengyun 1C debris cloud has become a focal point in discussions about space sustainability and the need for international regulations to prevent the creation of new debris.

Loading next visibility...
Identifier
30632, 1999-025ANP
Orbit
SSO
Country
Flag of CNCN / PRC
Related business
Manufacturer
Unknown
Mission
Spacecraft
Bus & Motor
Unknown
Mass
Unknown
Launch date (UTC)
1999-05-10 (27 years ago)
Launch vehicle
Unknown
Launch site
Taiyaun Space Center, China (TSC)
Object type
Payload
Rocket body
Debris
Shape & HBR
Unknown shape, 0.1 m
Radar Cross Section
Medium (>0.1 m² and <1 m²)

Expand to show TLE details & history
Last TLE update: 11 hours ago

TLE from 11 hours ago
0 FENGYUN 1C DEB
1 30632U 99025ANP 26254.41527791  .00009550  00000-0  14775-2 0  9999
2 30632  98.8363  52.4451 0014135  42.4154  11.8029 14.73423488 16932
Epoch: 2026-09-11T09:58Z
TLE epoch observation values (Epoch: 2026-09-11T09:58:00.011Z)
Latitude
53.42094°
Longitude
-99.51953°
Altitude
649.166 km
Speed
7.544 km/s
True Right ascension
02h 41m 40s
True Declination
53° 15' 13"
Sunlit
Object was in daylight at epoch
Visualization orbit readout
Latitude
Unknown
Longitude
Unknown
Altitude
Unknown
Speed
Unknown
Apparent Right ascension
Unknown
Apparent Declination
Unknown
Sunlit
N/A
Visualization observer readout
Local Sidereal Time
13:17:45
Azimuth
Unknown
Elevation
Unknown
Doppler factor
Unknown
Orbital elements
Apogee altitude
657.184 km
Perigee altitude
637.324 km
Semi-major axis
7,025.391 km
Eccentricity
0.00141
Inclination
98.8363°
RAAN
52.4451°
Arg. of periapsis
42.4154°
True anomaly
11.83609°
Mean anomaly
11.8029°
Eccentric anomaly
11.81949°
Mean motion
3.68585 °/min
Orbital period
97.67 mins
BSTAR
0.0014775
Loading maneuver chart data...
Computing Atmospheric mass density...
Loading historical data...
Loading historical data...
Loading historical data...
Loading historical data...
Loading historical data...
Loading historical data...
Loading historical data...

Documentation

Showing up to 5 results
|